Location: ????? ???????
(44.0444°N, 135.6175°E)
Time: 14:44:27
(UTC+00:00)

ALOS - Pass Details

Date: 17 July 2025
Orbit: 660 x 663 km, 98.1° (Epoch: 18 May)

Event Time Altitude Azimuth Distance (km) Brightness Sun altitude
Rises 18:47:27 0° 360° (N) 3,014 6.2 -7.3°
Reaches altitude 10° 18:50:06 10° 345° (NNW) 2,097 5.1 -6.9°
Maximum altitude 18:53:32 21° 296° (WNW) 1,471 3.8 -6.4°
Drops below altitude 10° 18:56:58 10° 247° (WSW) 2,087 4.1 -5.9°
Enters shadow 18:57:48 - 241° (WSW) 2,349 4.3 -5.8°
